GEFSSGP_500_meanwind_336.txt.gz
Wind_Speed
11 11 11 12 13 12 13 14 13 13 13 13 13 12 11 10 9 10 9 9 9 8 8 8 7 7 7 7 7 6 6 6 5 5 4 4 4 4 3 5 5 5 5 4 4 3 2 1 1
11 11 11 11 12 13 14 14 13 13 13 12 12 12 12 11 10 10 9 9 8 8 9 8 8 7 7 8 7 7 6 6 6 5 5 6 5 4 5 6 6 5 5 4 4 3 2 2 1
10 10 11 12 13 14 14 14 13 12 12 12 12 12 12 11 10 10 10 9 8 8 8 8 8 8 7 7 7 7 7 7 7 6 6 7 7 6 6 5 6 5 4 3 3 2 2 2 1
11 11 11 12 13 14 14 14 13 13 12 12 12 12 12 12 11 11 10 9 8 8 9 9 8 8 8 7 7 7 7 7 7 7 7 6 6 6 5 5 4 4 3 3 2 2 1 1 0
10 11 11 12 13 13 14 14 13 13 12 12 12 12 12 12 11 11 11 10 9 9 9 9 8 8 7 7 6 6 6 6 6 7 6 6 6 5 5 4 4 3 3 3 2 1 1 1 1
10 11 11 11 12 13 14 14 13 13 13 12 11 12 12 11 11 11 11 11 11 10 9 9 9 8 7 7 6 6 5 5 6 6 6 6 5 5 4 4 4 3 2 2 2 1 1 1 1
10 11 12 12 12 14 15 14 13 13 13 12 12 12 12 11 11 11 11 11 11 10 10 9 9 8 7 7 6 6 5 5 5 5 6 6 5 5 4 4 3 2 2 1 1 2 1 1 1
9 11 13 13 13 14 14 14 13 12 12 12 11 12 12 11 11 11 11 11 11 11 11 10 9 8 7 7 6 6 6 5 5 5 5 6 5 4 3 2 2 2 2 1 2 2 2 3 3
10 10 13 14 14 13 13 13 12 12 12 12 12 12 12 11 11 11 12 12 12 11 11 11 10 8 8 7 6 5 5 4 4 5 5 5 4 4 3 2 3 3 2 2 3 3 4 4 4
9 10 12 12 13 13 12 12 12 12 12 12 12 12 12 12 11 12 13 13 12 12 12 11 10 9 8 7 6 6 5 5 4 4 4 4 3 3 3 3 3 4 4 4 3 3 4 4 3
9 11 11 12 13 12 12 12 12 12 11 11 11 11 11 11 12 12 13 13 13 13 13 12 11 10 9 7 7 6 6 6 5 5 5 5 4 3 3 4 4 4 5 4 4 3 4 3 4
9 10 10 11 12 12 12 12 12 11 12 11 11 11 11 11 12 12 13 13 13 13 13 13 12 10 9 8 8 8 7 6 6 6 5 5 4 4 4 4 5 5 6 5 4 4 4 4 4
8 9 10 11 11 12 12 11 11 11 11 11 11 11 11 12 12 12 12 13 13 13 13 13 12 10 9 9 8 7 7 6 6 6 5 5 5 4 5 4 5 6 7 6 5 5 5 5 5
7 8 8 9 10 10 11 10 10 11 11 10 10 11 11 11 12 11 11 12 12 12 12 13 12 11 9 9 9 8 7 7 7 6 6 6 6 6 6 6 6 6 6 6 5 5 5 5 5
6 6 7 8 8 8 9 10 10 11 10 10 10 10 10 10 11 11 11 11 12 12 12 12 12 11 9 9 9 8 7 7 6 6 6 6 6 6 7 7 7 7 7 7 6 5 5 5 5
5 5 6 7 7 7 8 9 10 10 10 9 9 9 9 10 10 10 11 11 11 12 12 12 11 11 10 9 9 8 8 7 7 6 6 7 7 7 7 7 7 7 7 7 7 6 5 6 5
3 3 4 5 5 6 7 8 9 9 9 9 9 9 9 9 10 10 10 10 10 11 11 11 11 11 10 9 9 8 8 8 8 7 7 7 7 8 8 8 8 8 8 8 8 7 6 6 6
2 1 1 3 4 4 5 6 7 8 8 8 8 8 9 8 9 9 9 9 9 9 10 10 10 10 10 9 8 9 8 8 8 8 8 8 8 8 8 9 9 9 9 8 8 8 7 7 6
2 2 0 2 3 3 4 5 6 6 6 7 7 7 8 8 8 8 9 8 8 8 8 9 9 10 9 9 8 8 8 8 9 8 8 8 8 9 9 9 9 9 9 9 9 9 8 7 6
3 3 1 1 1 2 3 4 5 5 6 7 7 7 7 8 8 8 8 8 8 8 8 10 9 9 9 9 8 8 8 8 9 9 8 9 9 9 9 10 9 9 9 9 9 9 9 8 7
4 3 2 1 1 2 2 3 4 4 5 5 6 6 7 7 7 8 8 8 7 7 8 9 9 8 8 8 8 8 8 8 9 9 9 10 10 10 10 10 11 11 11 10 10 9 9 9 8
5 5 4 3 2 2 3 3 4 4 5 5 5 6 6 7 8 9 8 8 7 7 8 9 9 8 8 8 9 9 9 9 9 10 10 11 11 11 11 11 11 11 12 11 11 10 10 9 9
5 6 6 5 4 4 4 5 5 5 5 6 5 6 7 7 8 8 8 7 7 8 8 8 9 9 9 10 9 9 10 10 10 11 12 12 12 12 12 12 11 12 12 12 11 11 11 11 11
6 6 7 7 7 6 6 8 6 6 6 6 6 7 8 8 9 9 9 9 9 9 8 8 9 9 10 10 10 10 10 11 11 12 12 13 14 13 13 13 12 13 13 13 13 13 12 12 12
7 7 7 7 8 7 8 8 7 7 8 8 8 8 9 10 10 10 9 10 9 10 9 9 10 10 11 11 11 12 12 12 11 12 12 13 14 14 14 14 14 14 14 14 14 14 13 13 12
8 8 8 9 9 9 8 9 8 8 9 9 10 10 10 11 11 11 10 10 10 11 10 10 11 11 12 13 13 13 13 13 13 13 13 14 14 14 15 16 16 16 16 16 15 15 15 15 15
10 11 10 10 10 10 10 9 9 10 10 10 10 10 10 11 11 11 10 11 12 12 11 12 12 12 13 14 15 15 14 13 14 15 15 15 15 15 16 16 17 17 17 17 17 17 17 17 17
13 12 12 12 13 13 12 11 11 12 12 12 12 12 12 12 12 11 12 13 14 13 13 13 13 13 14 15 16 16 16 15 15 15 15 16 16 17 17 17 18 18 18 18 19 19 19 19 19
15 15 15 16 16 16 16 13 13 13 14 14 13 13 13 12 12 12 13 14 14 14 14 14 14 14 15 16 17 18 17 17 16 16 16 17 17 18 18 19 19 19 19 20 20 20 20 20 20
17 17 17 17 18 18 18 15 15 15 15 14 14 14 13 12 12 12 13 14 14 15 15 15 15 15 16 17 17 18 18 17 17 17 17 18 19 19 19 19 20 20 20 21 21 21 22 22 22

GEFSSGP_500_meanwind_342.txt.gz
Wind_Speed
12 12 13 12 13 12 11 11 11 10 11 10 10 9 9 9 8 8 8 8 7 7 7 6 5 5 5 4 4 4 4 4 4 3 3 3 3 4 4 5 5 5 6 6 5 5 4 4 4
12 12 12 13 13 11 11 11 11 11 11 11 11 10 9 9 9 8 8 8 7 7 6 6 5 5 5 4 4 4 5 5 5 4 4 4 4 5 5 5 5 6 6 5 5 4 4 3 3
12 12 12 12 12 10 10 11 11 11 11 11 11 11 10 10 9 9 8 8 7 7 7 6 5 5 5 4 4 4 5 5 6 6 6 6 5 5 5 5 5 5 5 4 4 3 3 3 3
11 12 12 12 10 10 10 10 11 11 11 11 11 11 11 10 10 9 8 8 7 7 6 6 5 5 5 5 5 4 5 5 5 6 6 6 5 5 5 5 4 4 4 3 3 3 2 2 2
11 11 12 11 10 10 10 10 10 10 11 11 11 11 11 10 10 10 9 8 7 7 6 6 6 5 5 5 4 4 4 4 5 6 6 5 5 5 4 4 3 3 2 3 2 2 2 2 2
11 11 11 10 10 11 11 11 11 10 10 10 11 11 11 11 10 10 9 9 8 7 7 6 6 5 5 5 4 4 3 5 5 6 6 5 5 5 4 4 3 2 2 2 2 2 2 3 3
11 11 10 11 10 11 11 11 11 10 10 11 11 10 10 10 10 10 9 9 9 8 7 7 7 6 6 5 5 5 5 4 4 5 5 4 4 3 3 3 2 1 1 1 2 2 2 2 3
10 12 11 10 10 10 10 10 10 10 10 10 10 10 10 10 10 10 9 9 9 9 8 7 6 7 7 6 6 6 5 4 4 4 4 4 3 2 2 2 1 1 0 0 1 2 2 2 2
11 11 9 9 9 9 10 10 9 9 9 9 10 10 10 10 10 10 10 10 10 9 9 8 7 7 7 6 6 6 5 4 4 4 4 4 3 3 2 2 1 2 1 1 2 2 3 3 3
11 10 9 9 9 9 9 9 9 9 9 9 10 10 10 10 10 10 10 10 10 10 9 9 8 7 7 6 5 5 5 4 4 4 4 3 3 3 2 2 3 3 2 2 2 3 3 3 3
10 9 8 8 8 8 9 9 9 9 9 9 9 9 9 9 9 10 10 10 9 10 10 10 9 8 7 6 6 6 5 5 5 4 4 4 4 3 3 3 3 3 3 3 2 3 3 4 3
8 8 7 7 7 7 7 8 8 8 9 9 9 9 9 9 9 10 10 10 9 9 9 10 9 8 7 6 6 6 5 5 5 5 5 5 5 5 4 4 4 4 3 3 4 4 4 4 4
6 6 6 6 7 7 7 8 8 8 8 9 9 9 9 9 9 10 10 10 10 9 9 9 9 8 8 7 6 5 5 5 5 5 5 5 5 6 5 5 5 4 4 4 4 4 4 4 5
6 5 6 6 6 7 7 7 7 8 8 8 8 9 9 9 9 9 9 9 9 9 9 9 8 8 8 8 7 6 6 5 5 5 5 5 6 7 7 6 6 5 4 4 5 5 5 5 5
4 4 4 4 5 5 6 7 7 7 8 8 8 8 8 9 8 7 7 8 8 9 8 8 8 8 8 8 7 6 6 6 5 5 5 6 7 7 7 7 7 6 5 5 5 6 6 6 5
4 3 3 3 4 5 6 6 6 7 7 7 7 7 7 7 7 6 6 7 8 8 8 8 8 7 7 7 7 6 5 5 5 5 6 6 7 7 6 7 7 6 5 6 6 7 6 6 5
2 2 2 2 3 4 4 5 5 6 6 7 7 7 6 6 6 6 6 7 7 7 8 7 8 8 7 7 6 6 6 5 5 6 6 6 6 7 6 7 7 7 6 6 7 7 7 6 6
1 1 1 1 2 3 4 4 5 5 6 6 6 6 6 7 7 6 6 6 7 7 7 7 8 8 7 6 6 6 6 5 5 5 6 6 6 7 7 6 6 7 7 7 7 7 7 7 7
2 2 1 0 0 2 3 4 5 5 5 6 6 7 7 7 7 7 7 7 7 7 7 7 8 8 7 6 6 6 6 6 5 5 6 7 7 7 7 6 7 7 7 7 8 8 8 7 7
3 3 2 2 2 2 2 3 5 5 5 6 6 7 8 8 8 8 7 7 7 7 7 7 7 8 7 7 6 6 7 7 6 6 6 7 7 7 7 7 7 8 8 9 9 9 9 8 8
3 3 3 3 3 4 3 4 6 6 6 6 6 7 8 9 9 9 8 8 8 8 8 8 8 9 9 8 8 7 7 7 7 7 7 8 7 7 8 8 8 8 9 9 10 10 9 9 9
4 5 4 4 3 4 4 4 6 6 7 7 7 7 8 9 9 9 10 9 9 8 9 9 9 9 9 9 9 8 8 8 9 9 9 9 8 8 8 9 9 9 10 10 10 10 10 10 10
5 6 6 5 5 4 5 4 6 7 8 8 8 8 10 10 10 10 10 10 9 9 10 10 10 10 10 10 9 9 10 10 10 10 10 10 10 10 9 10 10 10 10 10 11 11 11 11 11
7 6 6 6 5 5 6 5 6 8 9 9 9 10 11 11 10 9 9 10 9 9 9 10 11 11 11 11 11 10 10 10 11 11 11 11 10 11 10 11 11 11 11 12 12 12 12 12 12
7 5 5 6 6 7 7 6 7 9 9 10 10 11 12 11 10 9 10 10 10 10 10 11 12 12 12 12 12 11 11 11 12 12 12 12 12 12 12 12 12 13 13 14 14 14 14 14 14
7 6 6 6 7 8 8 7 9 10 10 11 11 12 12 12 11 11 11 11 11 11 11 12 12 12 12 12 13 13 13 13 13 12 12 13 13 13 13 13 14 15 15 16 15 15 15 16 16
9 9 9 9 9 8 9 10 10 11 12 12 12 13 13 13 13 12 12 12 12 12 12 12 12 12 13 13 13 14 14 14 14 13 13 13 13 14 14 15 16 16 16 17 17 17 18 18 18
11 11 11 10 10 10 10 10 12 12 12 13 14 14 13 13 13 13 12 12 12 12 13 13 13 13 14 14 14 15 14 14 14 14 14 14 15 16 16 17 18 18 19 19 20 19 19 20 20
13 12 12 12 12 11 11 12 13 13 13 14 14 13 14 14 14 13 13 13 14 14 14 15 15 15 15 15 15 15 15 16 16 16 16 16 17 17 18 19 19 20 20 21 21 21 21 21 21
14 14 13 13 14 14 13 14 14 14 14 14 14 14 15 15 15 15 15 15 15 15 16 15 16 16 16 16 17 17 17 16 16 17 17 18 19 19 20 20 20 21 21 22 22 22 22 22 23

GEFSSGP_500_meanwind_348.txt.gz
Wind_Speed
12 12 12 12 12 12 10 8 7 7 7 7 6 6 6 6 7 7 7 7 7 7 6 6 6 5 5 4 4 4 3 3 3 2 1 1 1 0 1 2 2 3 4 5 4 3 3 3 3
12 11 11 12 12 11 10 9 8 7 8 7 7 6 7 7 7 7 7 7 7 7 6 6 6 6 5 4 4 3 3 3 3 3 2 2 1 2 1 2 2 2 3 4 3 2 2 2 3
12 12 12 12 10 10 10 9 8 8 8 8 8 8 7 7 7 7 7 7 7 7 7 6 6 6 5 5 4 4 4 4 4 3 2 3 2 2 2 2 2 2 2 2 1 1 1 2 2
11 12 13 12 10 11 9 9 9 9 9 8 9 8 8 8 8 8 7 7 7 7 7 7 6 6 5 5 4 4 3 3 3 4 3 3 2 2 2 2 1 1 1 1 0 1 1 2 3
12 13 14 9 10 10 9 9 9 8 9 9 9 9 10 9 9 8 8 8 8 7 7 7 7 6 5 5 4 3 3 3 3 3 3 2 2 2 2 2 1 1 1 1 1 1 2 2 3
14 14 12 9 10 10 9 8 9 10 10 9 9 10 10 10 10 9 9 9 8 8 8 8 7 6 6 5 4 4 3 2 2 2 3 2 2 3 2 2 1 1 1 1 1 2 3 3 3
12 13 11 8 8 9 9 9 10 10 10 10 10 11 11 11 10 10 10 9 9 9 9 9 8 7 7 6 6 5 4 4 3 2 3 2 2 2 3 3 2 2 2 2 2 3 3 3 3
12 12 10 6 7 8 8 9 10 10 9 10 10 10 10 10 10 10 10 10 10 10 9 9 9 8 7 6 6 5 5 4 4 3 3 3 3 3 2 3 3 3 3 2 2 2 2 3 3
11 10 8 7 6 7 7 8 9 10 10 10 10 11 11 10 10 10 10 10 11 10 10 9 8 8 7 6 6 5 5 4 4 4 4 4 3 4 3 3 3 3 3 3 2 3 3 3 3
8 8 7 6 6 6 7 7 8 9 10 11 10 10 10 10 10 11 11 11 11 10 10 9 8 8 7 6 6 6 5 4 4 4 4 3 4 4 5 3 3 3 3 4 3 3 3 4 4
7 7 7 6 5 5 7 7 7 8 9 11 11 11 11 11 11 11 11 11 11 11 10 10 9 8 8 7 6 5 5 5 4 4 4 4 4 5 5 4 3 3 3 3 3 4 4 4 4
5 6 6 6 6 6 7 8 7 7 9 10 10 10 11 11 11 11 11 11 11 11 11 11 10 9 8 7 7 6 6 5 5 5 5 5 5 5 5 4 4 4 4 4 4 4 5 5 5
5 6 6 7 7 6 7 8 8 8 8 9 9 10 11 12 12 11 11 11 11 12 11 11 10 9 8 8 7 6 6 6 5 6 6 6 6 6 6 5 4 5 5 5 5 4 4 5 5
3 5 6 6 6 6 7 7 8 9 8 9 9 10 10 11 11 11 11 10 11 11 11 11 11 10 9 9 8 7 6 6 6 6 6 6 7 6 7 6 5 6 5 6 6 5 5 5 5
5 6 6 6 7 7 6 6 7 9 9 9 9 9 10 11 11 11 11 11 11 11 11 11 11 11 10 10 9 8 8 7 7 7 7 7 7 7 7 6 6 6 6 7 6 6 6 6 5
4 6 6 6 6 7 7 8 8 9 10 10 10 10 11 11 11 11 11 11 11 11 11 11 11 10 10 10 10 9 8 8 8 7 8 8 8 8 8 8 7 7 7 7 7 7 6 7 6
5 5 4 4 5 6 8 8 9 9 10 10 11 11 12 12 12 12 11 11 11 11 11 11 11 11 11 11 10 9 8 8 8 8 8 8 8 9 9 8 8 8 7 7 7 8 7 7 7
2 3 3 3 4 5 6 7 9 10 10 10 11 12 13 13 13 12 13 12 11 11 12 11 11 11 12 11 11 10 9 9 9 8 8 9 9 9 9 9 9 8 8 8 9 8 8 8 8
2 2 2 3 4 4 6 7 9 9 10 11 11 12 12 12 12 13 13 13 11 11 12 12 12 12 12 12 12 11 11 10 9 9 8 9 9 9 10 10 9 9 8 9 10 10 9 8 8
3 3 4 4 4 5 7 7 8 9 10 10 11 12 12 12 12 13 13 12 12 12 12 12 13 13 13 13 13 12 11 11 9 9 9 9 9 9 10 10 9 9 9 9 10 10 9 9 9
4 5 4 4 4 6 8 8 8 9 11 12 12 13 13 12 12 13 13 13 13 13 12 12 13 13 14 13 13 12 12 11 10 10 10 11 10 10 9 10 10 10 10 10 11 11 11 10 10
6 7 5 4 5 7 8 9 10 10 12 13 13 14 14 13 13 13 13 13 14 13 13 13 13 14 13 13 13 13 12 12 11 11 11 11 12 12 10 11 11 10 11 11 12 12 12 11 11
6 5 3 4 6 7 8 9 10 10 13 14 14 14 14 14 13 13 13 14 14 14 14 13 13 13 13 13 13 13 13 12 12 11 11 11 12 12 12 12 12 12 12 13 13 13 13 13 13
5 4 5 5 7 8 8 10 11 11 13 14 14 14 15 15 14 14 14 14 14 14 14 14 13 13 13 13 13 13 13 13 12 12 13 13 13 13 13 12 13 13 14 14 14 14 14 14 15
6 5 6 7 9 9 8 11 12 14 14 15 14 16 16 16 15 14 14 14 14 14 14 13 13 13 13 13 13 14 14 14 13 14 14 14 14 14 14 14 14 15 15 15 15 16 16 16 17
8 7 7 9 10 9 9 12 12 13 16 15 14 16 16 16 16 16 15 15 14 14 14 13 13 13 13 14 14 14 15 15 15 15 14 14 14 14 15 15 16 17 17 17 17 17 17 18 18
8 8 7 9 10 10 11 11 13 13 15 15 16 17 17 17 17 17 16 16 16 15 15 15 13 13 14 14 15 15 16 16 16 16 15 15 15 15 15 16 17 18 18 18 18 19 19 19 19
10 8 8 8 10 12 12 11 14 13 14 16 17 17 17 16 17 17 18 18 17 17 17 15 15 15 15 15 15 17 17 16 16 16 16 17 17 17 17 17 18 18 19 19 20 20 21 21 21
10 9 10 10 10 12 12 14 14 13 15 16 18 18 18 18 18 18 19 18 18 18 17 15 15 15 16 16 16 17 18 18 18 18 18 18 19 19 19 19 19 20 21 21 22 23 23 23 23
12 11 11 12 14 12 13 16 17 16 16 18 18 18 19 19 19 20 20 19 18 18 18 18 17 18 18 17 17 17 17 18 18 19 19 20 20 21 21 21 21 22 22 23 24 24 25 25 25

GEFSSGP_500_meanwind_354.txt.gz
Wind_Speed
10 10 10 10 11 11 11 14 13 12 11 11 11 11 10 10 10 10 10 9 9 10 9 9 8 7 6 5 4 4 3 3 3 3 2 2 2 1 0 0 1 2 3 3 4 4 4 4 4
10 10 10 10 12 12 14 14 14 14 14 13 12 11 10 10 10 10 10 9 10 9 9 8 8 7 6 5 5 4 3 3 2 2 2 2 2 2 1 1 1 2 3 3 4 3 3 4 4
10 10 11 12 13 14 15 16 16 15 15 14 13 12 10 10 11 10 10 10 10 10 9 8 7 7 6 6 5 4 4 4 3 3 3 3 3 3 3 2 1 2 3 3 3 3 2 3 4
11 10 10 12 14 14 16 16 16 16 15 14 13 12 11 11 11 11 11 10 10 10 9 9 8 7 6 6 5 4 4 5 5 4 4 3 3 3 3 3 3 2 2 3 3 3 2 1 2
10 10 11 13 13 15 16 15 16 16 15 14 14 13 13 13 12 11 11 11 11 10 9 9 8 7 7 6 6 6 6 6 5 5 4 4 4 3 3 3 3 2 1 1 2 3 2 2 2
10 10 13 14 14 15 15 15 16 16 15 14 14 14 14 14 13 13 13 12 12 11 10 10 9 8 7 6 6 6 6 6 5 5 4 4 4 4 3 3 3 1 1 1 2 1 1 1 2
10 11 13 14 14 15 15 15 16 16 15 14 15 15 15 15 14 13 13 13 12 12 11 11 10 8 7 7 7 7 6 6 6 5 5 5 4 5 4 3 3 2 2 1 1 0 1 2 2
11 11 11 13 14 14 15 15 15 16 15 15 15 15 15 15 14 14 13 13 12 11 11 11 10 9 8 7 7 7 7 6 6 6 6 5 4 4 4 3 3 3 2 2 1 0 1 1 2
11 12 13 14 14 15 13 14 14 15 16 15 15 15 15 15 14 14 13 13 12 11 11 10 10 10 8 7 7 7 6 6 6 6 6 5 5 4 3 3 2 2 2 1 1 1 2 2 2
11 12 13 14 14 13 13 13 14 14 15 15 15 15 15 15 14 14 13 13 12 11 10 10 10 10 9 8 7 7 6 5 5 5 5 5 5 5 4 3 2 2 1 1 2 2 2 2 3
11 12 13 12 12 12 12 14 14 14 15 15 15 15 15 15 14 14 13 13 12 12 11 10 10 10 9 8 7 7 7 6 6 6 6 6 6 5 4 3 2 2 2 2 2 3 3 3 3
11 11 12 11 12 12 13 14 14 14 14 14 14 15 15 14 14 13 13 13 12 11 11 11 10 10 10 9 8 7 7 7 6 6 6 6 5 5 5 5 4 3 3 3 3 3 3 3 3
10 11 10 10 11 11 12 13 12 12 13 14 15 14 14 13 14 13 13 13 12 12 11 10 9 10 9 9 8 7 6 7 7 6 6 6 6 5 5 6 5 4 4 4 3 3 3 3 3
9 9 9 9 9 10 11 11 11 12 13 14 14 14 14 14 14 14 13 13 12 12 11 11 10 10 9 9 8 7 6 7 6 6 6 7 6 5 5 6 5 5 4 4 4 3 3 3 3
7 8 8 8 9 10 10 11 11 12 12 13 13 14 14 14 13 13 13 13 13 11 11 11 11 10 10 10 9 8 8 7 7 6 6 6 6 6 6 5 5 4 4 4 4 4 4 4 4
5 7 7 8 9 10 10 10 10 11 12 13 13 13 13 13 14 13 13 12 13 12 11 10 11 10 10 9 9 8 7 7 6 6 7 6 6 6 6 5 5 4 4 4 4 4 4 4 5
6 5 5 6 7 8 9 10 10 11 13 13 12 13 13 13 13 13 12 12 12 11 11 10 10 11 11 10 9 9 7 7 6 6 7 7 6 6 5 5 5 4 4 4 4 4 4 5 5
5 4 5 5 5 7 8 9 10 11 12 12 12 13 12 12 13 12 12 11 11 11 10 10 10 11 11 11 9 8 7 6 6 7 6 6 6 6 6 6 5 5 5 4 5 5 5 6 6
2 3 3 4 4 5 5 7 10 10 11 11 12 13 13 12 12 12 12 11 11 11 11 11 11 11 10 10 9 8 7 6 7 6 6 6 7 7 7 7 6 6 6 5 5 5 5 6 6
1 0 1 2 3 4 4 6 8 9 10 11 12 12 12 12 12 12 12 11 10 10 10 10 11 11 10 10 9 8 8 7 7 7 7 7 7 8 8 8 7 7 6 6 6 6 6 7 7
1 2 2 3 3 3 5 6 8 9 9 10 11 12 11 12 12 12 12 12 11 11 11 10 11 11 10 9 9 8 8 8 7 8 8 8 9 9 9 8 8 8 7 7 7 7 7 7 7
4 3 3 3 3 4 5 7 8 8 8 10 11 11 11 11 11 12 12 12 11 11 11 11 11 11 11 9 9 9 9 9 9 9 9 9 10 9 9 9 9 8 8 8 8 8 8 8 8
6 5 5 4 4 5 6 6 6 8 9 10 11 12 11 11 11 12 13 12 12 11 11 11 12 12 12 11 10 10 9 9 9 9 10 10 10 10 10 9 9 9 9 9 9 10 10 10 10
4 5 5 5 6 6 7 7 7 7 8 8 10 11 11 11 11 12 12 12 12 12 12 12 12 12 12 12 11 11 11 10 10 10 11 11 11 11 10 10 10 10 10 10 11 12 12 12 12
6 6 6 6 7 7 7 8 7 7 7 8 9 11 11 11 12 13 13 13 13 13 13 12 12 12 12 12 12 12 12 11 11 11 11 11 12 12 11 11 12 12 12 12 13 13 13 14 14
7 7 7 7 8 9 10 11 8 6 6 7 9 11 11 11 12 14 14 14 14 14 14 13 13 13 13 13 13 13 13 11 11 11 11 11 12 12 13 13 13 13 14 14 14 14 15 15 16
8 8 8 9 9 10 11 10 9 7 7 9 10 12 13 12 13 14 15 14 15 15 15 14 14 14 14 14 14 13 13 12 12 12 12 12 13 14 14 14 15 15 15 15 16 17 17 18 18
9 9 10 10 11 11 11 9 8 9 10 10 11 12 13 14 14 15 15 15 15 16 15 15 15 15 14 14 14 14 14 13 13 13 14 14 15 15 15 16 16 16 17 17 18 19 19 20 20
11 11 12 11 12 13 11 10 10 11 11 11 12 14 14 14 15 15 16 16 16 16 16 16 17 16 16 16 15 15 15 15 15 14 15 16 16 16 16 17 18 18 18 19 20 21 21 21 22
15 14 15 14 13 13 12 12 12 13 14 14 14 15 14 14 15 15 16 17 17 17 17 17 18 18 18 18 17 17 17 17 17 17 17 17 17 17 18 19 20 20 20 21 21 21 22 22 23